• In Netherlands
  • List of Countries
  • For 7 days
  • Water Temperature
  • Satellite Maps
  • Weather Map
  • Weather Widgets
  • user-avatar
    Login

    Hourly Weather Kabul

    Today, 29 June, Thursday

    Time Temperature Precipitation Wind Pressure Humidity
    00:00 +23°C° 0 mm 2 mps 608 mmHg 39%
    01:00 +22°C° 0 mm 1 mps 608 mmHg 40%
    02:00 +22°C° 0 mm 1 mps 608 mmHg 42%
    03:00 +21°C° 0 mm 1 mps 608 mmHg 44%
    04:00 +21°C° 0 mm 1 mps 608 mmHg 46%
    05:00 +20°C° 0 mm 1 mps 607 mmHg 47%
    06:00 +21°C° 0 mm 1 mps 608 mmHg 42%
    07:00 +22°C° 0 mm 1 mps 608 mmHg 37%
    08:00 +24°C° 0 mm 1 mps 609 mmHg 33%
    09:00 +25°C° 0 mm 1 mps 609 mmHg 29%
    10:00 +26°C° 0 mm 1 mps 609 mmHg 26%
    11:00 +28°C° 0 mm 2 mps 610 mmHg 22%
    12:00 +29°C° 0 mm 2 mps 610 mmHg 20%
    13:00 +30°C° 0 mm 2 mps 610 mmHg 18%
    14:00 +31°C° 0 mm 2 mps 610 mmHg 16%
    15:00 +31°C° 0 mm 3 mps 609 mmHg 15%
    16:00 +31°C° 0 mm 3 mps 609 mmHg 15%
    17:00 +31°C° 0 mm 3 mps 609 mmHg 14%
    18:00 +29°C° 0 mm 3 mps 609 mmHg 16%
    19:00 +28°C° 0 mm 3 mps 608 mmHg 18%
    20:00 +26°C° 0 mm 3 mps 608 mmHg 20%
    21:00 +25°C° 0 mm 2 mps 608 mmHg 23%
    22:00 +24°C° 0 mm 2 mps 608 mmHg 25%
    23:00 +23°C° 0 mm 1 mps 607 mmHg 28%

    Tomorrow, 30 June, Friday

    Time Temperature Precipitation Wind Pressure Humidity
    00:00 +22°C° 0 mm 1 mps 607 mmHg 30%
    01:00 +21°C° 0 mm 1 mps 606 mmHg 33%
    02:00 +21°C° 0 mm 1 mps 606 mmHg 35%
    03:00 +20°C° 0 mm 1 mps 605 mmHg 34%
    04:00 +20°C° 0 mm 1 mps 605 mmHg 34%
    05:00 +19°C° 0 mm 1 mps 605 mmHg 33%
    06:00 +21°C° 0 mm 1 mps 606 mmHg 28%
    07:00 +23°C° 0 mm 1 mps 607 mmHg 23%
    08:00 +25°C° 0 mm 1 mps 607 mmHg 18%
    09:00 +26°C° 0 mm 2 mps 608 mmHg 15%
    10:00 +28°C° 0 mm 2 mps 608 mmHg 13%
    11:00 +29°C° 0 mm 2 mps 608 mmHg 11%
    12:00 +30°C° 0 mm 2 mps 608 mmHg 10%
    13:00 +31°C° 0 mm 2 mps 608 mmHg 9%
    14:00 +32°C° 0 mm 2 mps 608 mmHg 8%
    15:00 +33°C° 0 mm 3 mps 608 mmHg 8%
    16:00 +33°C° 0 mm 3 mps 608 mmHg 8%
    17:00 +33°C° 0 mm 4 mps 608 mmHg 8%
    18:00 +32°C° 0 mm 4 mps 607 mmHg 10%
    19:00 +29°C° 0 mm 3 mps 607 mmHg 12%
    20:00 +27°C° 0 mm 3 mps 607 mmHg 14%
    21:00 +26°C° 0 mm 2 mps 607 mmHg 16%
    22:00 +25°C° 0 mm 2 mps 607 mmHg 18%
    23:00 +24°C° 0 mm 2 mps 607 mmHg 20%

    Day after tomorrow, 1 July, Saturday

    Time Temperature Precipitation Wind Pressure Humidity
    00:00 +23°C° 0 mm 2 mps 606 mmHg 21%
    01:00 +22°C° 0 mm 1 mps 606 mmHg 23%
    02:00 +22°C° 0 mm 1 mps 606 mmHg 24%
    03:00 +21°C° 0 mm 1 mps 605 mmHg 24%
    04:00 +21°C° 0 mm 1 mps 605 mmHg 25%
    05:00 +20°C° 0 mm 1 mps 605 mmHg 26%
    06:00 +21°C° 0 mm 2 mps 606 mmHg 22%
    07:00 +24°C° 0 mm 2 mps 607 mmHg 19%
    08:00 +26°C° 0 mm 2 mps 608 mmHg 16%
    09:00 +27°C° 0 mm 2 mps 608 mmHg 14%
    10:00 +29°C° 0 mm 3 mps 609 mmHg 13%
    11:00 +30°C° 0 mm 3 mps 609 mmHg 11%
    12:00 +31°C° 0 mm 3 mps 609 mmHg 10%
    13:00 +33°C° 0 mm 4 mps 609 mmHg 9%
    14:00 +34°C° 0 mm 4 mps 609 mmHg 8%
    15:00 +34°C° 0 mm 4 mps 609 mmHg 8%
    16:00 +33°C° 0 mm 5 mps 608 mmHg 8%
    17:00 +33°C° 0 mm 6 mps 608 mmHg 8%
    18:00 +30°C° 0 mm 5 mps 608 mmHg 10%
    19:00 +28°C° 0 mm 4 mps 607 mmHg 12%
    20:00 +26°C° 0 mm 3 mps 607 mmHg 14%
    21:00 +25°C° 0 mm 3 mps 607 mmHg 15%
    22:00 +24°C° 0 mm 3 mps 607 mmHg 16%
    23:00 +23°C° 0 mm 2 mps 607 mmHg 17%

    2 July, Sunday

    Time Temperature Precipitation Wind Pressure Humidity
    00:00 +23°C° 0 mm 2 mps 607 mmHg 19%
    01:00 +21°C° 0 mm 2 mps 606 mmHg 20%
    02:00 +21°C° 0 mm 2 mps 606 mmHg 21%
    03:00 +20°C° 0 mm 2 mps 606 mmHg 22%
    04:00 +20°C° 0 mm 2 mps 606 mmHg 23%
    05:00 +19°C° 0 mm 2 mps 606 mmHg 24%
    06:00 +21°C° 0 mm 2 mps 607 mmHg 21%
    07:00 +24°C° 0 mm 2 mps 607 mmHg 19%
    08:00 +26°C° 0 mm 2 mps 608 mmHg 17%
    09:00 +27°C° 0 mm 2 mps 609 mmHg 16%
    10:00 +28°C° 0 mm 2 mps 609 mmHg 14%
    11:00 +30°C° 0 mm 2 mps 609 mmHg 13%
    12:00 +31°C° 0 mm 3 mps 609 mmHg 12%
    13:00 +33°C° 0 mm 3 mps 609 mmHg 11%
    14:00 +34°C° 0 mm 3 mps 609 mmHg 10%
    15:00 +34°C° 0 mm 4 mps 609 mmHg 10%
    16:00 +34°C° 0 mm 4 mps 608 mmHg 9%
    17:00 +34°C° 0 mm 5 mps 608 mmHg 9%
    18:00 +32°C° 0 mm 4 mps 608 mmHg 11%
    19:00 +29°C° 0 mm 4 mps 607 mmHg 13%
    20:00 +27°C° 0 mm 3 mps 607 mmHg 15%
    21:00 +26°C° 0 mm 3 mps 607 mmHg 17%
    22:00 +25°C° 0 mm 3 mps 607 mmHg 18%
    23:00 +24°C° 0 mm 2 mps 607 mmHg 20%

    3 July, Monday

    Time Temperature Precipitation Wind Pressure Humidity
    00:00 +24°C° 0 mm 2 mps 606 mmHg 21%
    01:00 +23°C° 0 mm 2 mps 606 mmHg 22%
    02:00 +21°C° 0 mm 2 mps 606 mmHg 22%
    03:00 +21°C° 0 mm 2 mps 605 mmHg 23%
    04:00 +20°C° 0 mm 2 mps 605 mmHg 24%
    05:00 +20°C° 0 mm 2 mps 605 mmHg 24%
    06:00 +23°C° 0 mm 2 mps 606 mmHg 22%
    07:00 +24°C° 0 mm 2 mps 607 mmHg 19%
    08:00 +26°C° 0 mm 2 mps 608 mmHg 17%
    09:00 +27°C° 0 mm 2 mps 608 mmHg 15%
    10:00 +29°C° 0 mm 2 mps 608 mmHg 14%
    11:00 +30°C° 0 mm 2 mps 609 mmHg 12%
    12:00 +31°C° 0 mm 2 mps 609 mmHg 11%
    13:00 +32°C° 0 mm 2 mps 608 mmHg 11%
    14:00 +34°C° 0 mm 3 mps 608 mmHg 10%
    15:00 +34°C° 0 mm 3 mps 608 mmHg 10%
    16:00 +34°C° 0 mm 3 mps 608 mmHg 10%
    17:00 +34°C° 0 mm 4 mps 608 mmHg 10%
    18:00 +31°C° 0 mm 3 mps 607 mmHg 12%
    19:00 +29°C° 0 mm 3 mps 607 mmHg 14%
    20:00 +28°C° 0 mm 3 mps 607 mmHg 16%
    21:00 +27°C° 0 mm 3 mps 606 mmHg 17%
    22:00 +26°C° 0 mm 2 mps 606 mmHg 19%
    23:00 +25°C° 0 mm 2 mps 606 mmHg 20%

    4 July, Tuesday

    Time Temperature Precipitation Wind Pressure Humidity
    00:00 +24°C° 0 mm 2 mps 606 mmHg 21%
    01:00 +24°C° 0 mm 2 mps 605 mmHg 22%
    02:00 +23°C° 0 mm 2 mps 605 mmHg 23%
    03:00 +22°C° 0 mm 1 mps 605 mmHg 24%
    04:00 +22°C° 0 mm 1 mps 605 mmHg 25%
    05:00 +21°C° 0 mm 1 mps 605 mmHg 25%
    06:00 +23°C° 0 mm 1 mps 606 mmHg 23%
    07:00 +25°C° 0 mm 1 mps 607 mmHg 20%
    08:00 +27°C° 0 mm 1 mps 608 mmHg 17%
    09:00 +28°C° 0 mm 1 mps 608 mmHg 16%
    10:00 +29°C° 0 mm 1 mps 608 mmHg 14%
    11:00 +30°C° 0 mm 2 mps 609 mmHg 13%
    12:00 +31°C° 0 mm 2 mps 609 mmHg 12%
    13:00 +32°C° 0 mm 2 mps 608 mmHg 11%
    14:00 +34°C° 0 mm 2 mps 608 mmHg 10%
    15:00 +34°C° 0 mm 3 mps 608 mmHg 10%
    16:00 +34°C° 0 mm 3 mps 608 mmHg 9%
    17:00 +34°C° 0 mm 3 mps 608 mmHg 9%
    18:00 +33°C° 0 mm 3 mps 608 mmHg 11%
    19:00 +30°C° 0 mm 3 mps 607 mmHg 13%
    20:00 +28°C° 0 mm 3 mps 607 mmHg 15%
    21:00 +27°C° 0 mm 3 mps 607 mmHg 18%
    22:00 +26°C° 0 mm 2 mps 607 mmHg 20%
    23:00 +25°C° 0 mm 2 mps 607 mmHg 22%
    Show more